When you browse on this site, cookies collect data to enhance your experience and personalize the content and advertising you see.
Visit our Privacy Policy to learn more. By continuing to use the site, you agree to this use of cookies and data.
EN

Hourly Weather Elbasan

Today, 6 July, Monday

Time Temperature Precipitation Wind Pressure Humidity
00:00 +23°C° 0 mm 1 mps 731 mmHg 75%
01:00 +23°C° 0 mm 2 mps 731 mmHg 73%
02:00 +21°C° 0 mm 2 mps 730 mmHg 74%
03:00 +21°C° 0 mm 2 mps 730 mmHg 74%
04:00 +21°C° 0 mm 2 mps 730 mmHg 74%
05:00 +23°C° 0 mm 2 mps 730 mmHg 71%
06:00 +25°C° 0 mm 2 mps 730 mmHg 68%
07:00 +26°C° 0 mm 2 mps 730 mmHg 65%
08:00 +27°C° 0.3 mm 1 mps 730 mmHg 59%
09:00 +29°C° 0.3 mm 1 mps 730 mmHg 53%
10:00 +30°C° 0.3 mm 1 mps 730 mmHg 47%
11:00 +31°C° 0.2 mm 1 mps 730 mmHg 45%
12:00 +31°C° 0.2 mm 2 mps 729 mmHg 43%
13:00 +32°C° 0.2 mm 2 mps 729 mmHg 42%
14:00 +31°C° 0.1 mm 2 mps 729 mmHg 44%
15:00 +31°C° 0.1 mm 2 mps 728 mmHg 47%
16:00 +30°C° 0.1 mm 3 mps 728 mmHg 49%
17:00 +29°C° 0.2 mm 2 mps 728 mmHg 56%
18:00 +27°C° 0.2 mm 2 mps 728 mmHg 63%
19:00 +26°C° 0.2 mm 1 mps 728 mmHg 69%
20:00 +25°C° 0 mm 1 mps 728 mmHg 70%
21:00 +24°C° 0 mm 1 mps 728 mmHg 71%
22:00 +23°C° 0 mm 1 mps 728 mmHg 72%
23:00 +23°C° 0 mm 1 mps 728 mmHg 72%

Tomorrow, 7 July, Tuesday

Time Temperature Precipitation Wind Pressure Humidity
00:00 +23°C° 0 mm 1 mps 728 mmHg 72%
01:00 +23°C° 0 mm 1 mps 728 mmHg 72%
02:00 +22°C° 0 mm 1 mps 728 mmHg 71%
03:00 +22°C° 0 mm 1 mps 728 mmHg 71%
04:00 +22°C° 0 mm 1 mps 727 mmHg 71%
05:00 +24°C° 0 mm 1 mps 728 mmHg 67%
06:00 +25°C° 0 mm 1 mps 729 mmHg 63%
07:00 +27°C° 0 mm 1 mps 729 mmHg 59%
08:00 +29°C° 0 mm 1 mps 729 mmHg 54%
09:00 +30°C° 0 mm 1 mps 730 mmHg 49%
10:00 +32°C° 0 mm 1 mps 730 mmHg 44%
11:00 +34°C° 0 mm 2 mps 730 mmHg 43%
12:00 +34°C° 0 mm 2 mps 730 mmHg 42%
13:00 +35°C° 0 mm 2 mps 730 mmHg 41%
14:00 +34°C° 0.3 mm 2 mps 731 mmHg 45%
15:00 +33°C° 0.3 mm 3 mps 731 mmHg 49%
16:00 +31°C° 0.3 mm 3 mps 731 mmHg 53%
17:00 +30°C° 0.2 mm 3 mps 731 mmHg 59%
18:00 +28°C° 0.2 mm 3 mps 731 mmHg 65%
19:00 +26°C° 0.2 mm 2 mps 732 mmHg 71%
20:00 +25°C° 0 mm 2 mps 732 mmHg 74%
21:00 +24°C° 0 mm 2 mps 733 mmHg 77%
22:00 +21°C° 0 mm 2 mps 733 mmHg 80%
23:00 +21°C° 0 mm 2 mps 733 mmHg 80%

Day after tomorrow, 8 July, Wednesday

Time Temperature Precipitation Wind Pressure Humidity
00:00 +20°C° 0 mm 2 mps 733 mmHg 80%
01:00 +19°C° 0 mm 3 mps 733 mmHg 80%
02:00 +19°C° 0 mm 3 mps 733 mmHg 79%
03:00 +18°C° 0 mm 3 mps 733 mmHg 79%
04:00 +18°C° 0 mm 3 mps 733 mmHg 78%
05:00 +19°C° 0 mm 3 mps 734 mmHg 72%
06:00 +20°C° 0 mm 3 mps 734 mmHg 66%
07:00 +22°C° 0 mm 3 mps 734 mmHg 61%
08:00 +24°C° 0 mm 3 mps 734 mmHg 55%
09:00 +26°C° 0 mm 2 mps 735 mmHg 49%
10:00 +28°C° 0 mm 2 mps 735 mmHg 43%
11:00 +29°C° 0 mm 2 mps 735 mmHg 42%
12:00 +30°C° 0 mm 2 mps 735 mmHg 42%
13:00 +31°C° 0 mm 2 mps 735 mmHg 41%
14:00 +31°C° 0 mm 2 mps 735 mmHg 42%
15:00 +31°C° 0 mm 2 mps 735 mmHg 43%
16:00 +30°C° 0 mm 2 mps 735 mmHg 45%
17:00 +28°C° 0 mm 2 mps 735 mmHg 52%
18:00 +26°C° 0 mm 2 mps 735 mmHg 59%
19:00 +24°C° 0 mm 1 mps 735 mmHg 66%
20:00 +24°C° 0 mm 1 mps 735 mmHg 68%
21:00 +23°C° 0 mm 1 mps 735 mmHg 70%
22:00 +22°C° 0 mm 1 mps 736 mmHg 73%
23:00 +22°C° 0 mm 1 mps 736 mmHg 73%

9 July, Thursday

Time Temperature Precipitation Wind Pressure Humidity
00:00 +21°C° 0 mm 2 mps 736 mmHg 73%
01:00 +20°C° 0 mm 2 mps 736 mmHg 74%
02:00 +20°C° 0 mm 2 mps 736 mmHg 74%
03:00 +20°C° 0 mm 2 mps 736 mmHg 74%
04:00 +19°C° 0 mm 2 mps 736 mmHg 73%
05:00 +21°C° 0 mm 2 mps 736 mmHg 69%
06:00 +24°C° 0 mm 2 mps 736 mmHg 64%
07:00 +26°C° 0 mm 2 mps 737 mmHg 60%
08:00 +27°C° 0 mm 2 mps 737 mmHg 54%
09:00 +29°C° 0 mm 2 mps 737 mmHg 48%
10:00 +31°C° 0 mm 1 mps 737 mmHg 42%
11:00 +32°C° 0 mm 2 mps 737 mmHg 39%
12:00 +32°C° 0 mm 2 mps 736 mmHg 36%
13:00 +34°C° 0 mm 2 mps 736 mmHg 33%
14:00 +34°C° 0 mm 2 mps 736 mmHg 35%
15:00 +34°C° 0 mm 2 mps 736 mmHg 36%
16:00 +32°C° 0 mm 2 mps 736 mmHg 37%
17:00 +30°C° 0 mm 2 mps 736 mmHg 44%
18:00 +28°C° 0 mm 2 mps 736 mmHg 51%
19:00 +26°C° 0 mm 1 mps 736 mmHg 59%
20:00 +25°C° 0 mm 1 mps 736 mmHg 59%
21:00 +24°C° 0 mm 1 mps 736 mmHg 60%
22:00 +23°C° 0 mm 2 mps 736 mmHg 61%
23:00 +23°C° 0 mm 2 mps 736 mmHg 61%

10 July, Friday

Time Temperature Precipitation Wind Pressure Humidity
00:00 +21°C° 0 mm 2 mps 736 mmHg 61%
01:00 +21°C° 0 mm 2 mps 736 mmHg 60%
02:00 +21°C° 0 mm 2 mps 736 mmHg 60%
03:00 +20°C° 0 mm 2 mps 735 mmHg 61%
04:00 +20°C° 0 mm 2 mps 735 mmHg 61%
05:00 +23°C° 0 mm 2 mps 735 mmHg 59%
06:00 +25°C° 0 mm 2 mps 736 mmHg 57%
07:00 +27°C° 0 mm 2 mps 736 mmHg 55%
08:00 +28°C° 0 mm 2 mps 736 mmHg 50%
09:00 +30°C° 0 mm 1 mps 736 mmHg 44%
10:00 +32°C° 0 mm 1 mps 736 mmHg 39%
11:00 +34°C° 0 mm 2 mps 735 mmHg 38%
12:00 +34°C° 0 mm 2 mps 735 mmHg 36%
13:00 +35°C° 0 mm 2 mps 735 mmHg 35%
14:00 +34°C° 0 mm 2 mps 735 mmHg 37%
15:00 +34°C° 0 mm 3 mps 735 mmHg 39%
16:00 +33°C° 0 mm 3 mps 734 mmHg 41%
17:00 +30°C° 0 mm 2 mps 734 mmHg 48%
18:00 +28°C° 0 mm 1 mps 734 mmHg 55%
19:00 +26°C° 0 mm 1 mps 734 mmHg 61%
20:00 +25°C° 0 mm 1 mps 734 mmHg 63%
21:00 +25°C° 0 mm 1 mps 734 mmHg 64%
22:00 +24°C° 0 mm 1 mps 735 mmHg 65%
23:00 +24°C° 0 mm 1 mps 735 mmHg 66%

11 July, Saturday

Time Temperature Precipitation Wind Pressure Humidity
00:00 +23°C° 0 mm 1 mps 734 mmHg 67%
01:00 +23°C° 0 mm 1 mps 734 mmHg 69%
02:00 +23°C° 0 mm 1 mps 734 mmHg 70%
03:00 +23°C° 0 mm 1 mps 734 mmHg 71%
04:00 +22°C° 0 mm 1 mps 734 mmHg 72%
05:00 +24°C° 0 mm 1 mps 734 mmHg 67%
06:00 +26°C° 0 mm 1 mps 734 mmHg 63%
07:00 +27°C° 0 mm 1 mps 734 mmHg 58%
08:00 +29°C° 0 mm 1 mps 734 mmHg 54%
09:00 +31°C° 0 mm 1 mps 734 mmHg 49%
10:00 +32°C° 0 mm 1 mps 735 mmHg 44%
11:00 +34°C° 0 mm 2 mps 734 mmHg 42%
12:00 +34°C° 0 mm 2 mps 734 mmHg 41%
13:00 +35°C° 0 mm 3 mps 734 mmHg 39%
14:00 +34°C° 0 mm 3 mps 734 mmHg 40%
15:00 +34°C° 0 mm 3 mps 733 mmHg 41%
16:00 +34°C° 0 mm 3 mps 733 mmHg 42%
17:00 +31°C° 0.1 mm 2 mps 733 mmHg 47%
18:00 +29°C° 0.1 mm 2 mps 733 mmHg 53%
19:00 +27°C° 0.1 mm 1 mps 733 mmHg 58%
20:00 +26°C° 0 mm 1 mps 733 mmHg 60%
21:00 +25°C° 0 mm 1 mps 734 mmHg 61%
22:00 +24°C° 0 mm 1 mps 734 mmHg 62%
23:00 +24°C° 0 mm 1 mps 734 mmHg 63%
Show more